Time,TemperatureF,DewpointF,PressureIn,WindDirection,WindDirectionDegrees,WindSpeedMPH,WindSpeedGustMPH,Humidity,HourlyPrecipIn,Conditions,Clouds,dailyrainin,SoftwareType,DateUTC
2013-06-11 00:00:00,48.0,30.0,-100.00,North,-999,-999.0,-999.0,49,-99.99,,,-99.99,,2013-06-11 07:00:00,
2013-06-11 00:52:00,48.0,30.0,-100.00,North,-999,-999.0,-999.0,49,-99.99,,,-99.99,,2013-06-11 07:52:00,
2013-06-11 01:00:00,49.0,34.0,-100.00,South,180,2.0,3.0,56,-99.99,,,0.00,,2013-06-11 08:00:00,
2013-06-11 01:52:00,49.0,34.0,-100.00,South,180,2.0,3.0,56,-99.99,,,0.00,,2013-06-11 08:52:00,
2013-06-11 02:00:00,47.0,33.0,-100.00,ESE,109,1.0,2.0,57,-99.99,,,-99.99,,2013-06-11 09:00:00,
2013-06-11 02:53:00,47.0,33.0,-100.00,ESE,109,1.0,2.0,57,-99.99,,,-99.99,,2013-06-11 09:53:00,
2013-06-11 03:00:00,47.0,33.0,-100.00,ESE,120,1.0,3.0,58,-99.99,,,-99.99,,2013-06-11 10:00:00,
2013-06-11 03:52:00,47.0,33.0,-100.00,ESE,120,1.0,3.0,58,-99.99,,,-99.99,,2013-06-11 10:52:00,
2013-06-11 04:00:00,46.0,33.0,-100.00,ESE,117,1.0,2.0,59,-99.99,,,-99.99,,2013-06-11 11:00:00,
2013-06-11 04:52:00,46.0,33.0,-100.00,ESE,117,1.0,2.0,59,-99.99,,,-99.99,,2013-06-11 11:52:00,
2013-06-11 05:00:00,45.0,32.0,-100.00,ESE,121,1.0,2.0,60,-99.99,,,0.00,,2013-06-11 12:00:00,
2013-06-11 05:52:00,45.0,32.0,-100.00,ESE,121,1.0,2.0,60,-99.99,,,0.00,,2013-06-11 12:52:00,
2013-06-11 06:00:00,47.0,34.0,-100.00,WSW,249,0.0,2.0,61,-99.99,,,0.00,,2013-06-11 13:00:00,
2013-06-11 06:52:00,47.0,34.0,-100.00,WSW,249,0.0,2.0,61,-99.99,,,0.00,,2013-06-11 13:52:00,
2013-06-11 07:00:00,49.0,37.0,-100.00,North,350,1.0,2.0,63,-99.99,,,-99.99,,2013-06-11 14:00:00,
2013-06-11 07:53:00,49.0,37.0,-100.00,North,350,1.0,2.0,63,-99.99,,,-99.99,,2013-06-11 14:53:00,
2013-06-11 08:00:00,49.0,37.0,-100.00,WNW,303,1.0,4.0,64,-99.99,,,0.00,,2013-06-11 15:00:00,
2013-06-11 08:53:00,49.0,37.0,-100.00,WNW,303,1.0,4.0,64,-99.99,,,0.00,,2013-06-11 15:53:00,
2013-06-11 10:00:00,48.0,39.0,-100.00,SW,234,1.0,4.0,71,-99.99,,,-99.99,,2013-06-11 17:00:00,
2013-06-11 10:52:00,48.0,39.0,-100.00,SW,234,1.0,4.0,71,-99.99,,,-99.99,,2013-06-11 17:52:00,
2013-06-11 11:00:00,50.0,41.0,-100.00,North,350,2.0,4.0,71,-99.99,,,0.00,,2013-06-11 18:00:00,
2013-06-11 11:52:00,50.0,41.0,-100.00,North,350,2.0,4.0,71,-99.99,,,0.00,,2013-06-11 18:52:00,
2013-06-11 12:00:00,49.0,38.0,-100.00,WNW,296,3.0,4.0,66,-99.99,,,0.00,,2013-06-11 19:00:00,
2013-06-11 12:52:00,49.0,38.0,-100.00,WNW,296,3.0,4.0,66,-99.99,,,0.00,,2013-06-11 19:52:00,
2013-06-11 13:00:00,53.0,41.0,-100.00,NW,322,2.0,4.0,62,-99.99,,,0.01,,2013-06-11 20:00:00,
2013-06-11 13:42:00,53.0,41.0,-100.00,NW,322,2.0,4.0,62,-99.99,,,0.01,,2013-06-11 20:42:00,
2013-06-11 13:52:00,53.0,41.0,-100.00,NW,322,2.0,4.0,62,-99.99,,,0.01,,2013-06-11 20:52:00,
2013-06-11 14:00:00,50.0,34.0,-100.00,WNW,298,2.0,5.0,55,-99.99,,,0.00,,2013-06-11 21:00:00,
2013-06-11 14:53:00,50.0,34.0,-100.00,WNW,298,2.0,5.0,55,-99.99,,,0.00,,2013-06-11 21:53:00,
2013-06-11 15:00:00,52.0,34.0,-100.00,SE,139,2.0,5.0,49,-99.99,,,-99.99,,2013-06-11 22:00:00,
2013-06-11 15:42:00,52.0,34.0,-100.00,SE,139,2.0,5.0,49,-99.99,,,-99.99,,2013-06-11 22:42:00,
2013-06-11 15:52:00,52.0,34.0,-100.00,SE,139,2.0,5.0,49,-99.99,,,-99.99,,2013-06-11 22:52:00,
2013-06-11 16:00:00,50.0,27.0,-100.00,SE,145,4.0,8.0,40,-99.99,,,0.01,,2013-06-11 23:00:00,
2013-06-11 16:42:00,50.0,27.0,-100.00,SE,145,4.0,8.0,40,-99.99,,,0.01,,2013-06-11 23:42:00,
2013-06-11 16:52:00,50.0,27.0,-100.00,SE,145,4.0,8.0,40,-99.99,,,0.01,,2013-06-11 23:52:00,
2013-06-11 17:00:00,48.0,25.0,-100.00,South,177,5.0,9.0,40,-99.99,,,0.01,,2013-06-12 00:00:00,
2013-06-11 17:42:00,48.0,25.0,-100.00,South,177,5.0,9.0,40,-99.99,,,0.01,,2013-06-12 00:42:00,
2013-06-11 17:52:00,48.0,25.0,-100.00,South,177,5.0,9.0,40,-99.99,,,0.01,,2013-06-12 00:52:00,
2013-06-11 18:00:00,45.0,27.0,-100.00,SSE,167,7.0,11.0,48,-99.99,,,0.01,,2013-06-12 01:00:00,
2013-06-11 18:42:00,45.0,27.0,-100.00,SSE,167,7.0,11.0,48,-99.99,,,0.01,,2013-06-12 01:42:00,
2013-06-11 18:52:00,45.0,27.0,-100.00,SSE,167,7.0,11.0,48,-99.99,,,0.01,,2013-06-12 01:52:00,
2013-06-11 19:00:00,46.0,29.0,-100.00,South,173,6.0,11.0,51,-99.99,,,0.02,,2013-06-12 02:00:00,
2013-06-11 19:52:00,46.0,29.0,-100.00,South,173,6.0,11.0,51,-99.99,,,0.02,,2013-06-12 02:52:00,
2013-06-11 21:00:00,40.0,29.0,-100.00,SSW,213,7.0,12.0,65,-99.99,,,0.01,,2013-06-12 04:00:00,
2013-06-11 21:52:00,40.0,29.0,-100.00,SSW,213,7.0,12.0,65,-99.99,,,0.01,,2013-06-12 04:52:00,
2013-06-11 22:00:00,40.0,29.0,-100.00,SE,145,6.0,10.0,63,-99.99,,,0.02,,2013-06-12 05:00:00,
2013-06-11 22:42:00,40.0,29.0,-100.00,SE,145,6.0,10.0,63,-99.99,,,0.02,,2013-06-12 05:42:00,
2013-06-11 22:52:00,40.0,29.0,-100.00,SE,145,6.0,10.0,63,-99.99,,,0.02,,2013-06-12 05:52:00,
2013-06-11 23:00:00,40.0,27.0,-100.00,SSE,152,6.0,9.0,59,-99.99,,,0.01,,2013-06-12 06:00:00,
2013-06-11 23:42:00,40.0,27.0,-100.00,SSE,152,6.0,9.0,59,-99.99,,,0.01,,2013-06-12 06:42:00,
2013-06-11 23:52:00,40.0,27.0,-100.00,SSE,152,6.0,9.0,59,-99.99,,,0.01,,2013-06-12 06:52:00,